Albion, NE

12:49 PM CST on February 23, 2017 (GMT -0600)
Albion Municipal

Weather History for KBVN - November, 2011

Change the Weather History Date:

Thursday, November 24, 2011

  Actual Average (KOFK) Record (KOFK)
Temperature  
Mean Temperature 48 °F -  
Max Temperature 64 °F 44 °F 74 °F (1942)
Min Temperature 32 °F 20 °F -2 °F (1975)
Degree Days  
Heating Degree Days 17    
Moisture  
Dew Point 30 °F    
Average Humidity 56    
Maximum Humidity 80    
Minimum Humidity 30    
Precipitation  
Precipitation 0.00 in - - ()
Sea Level Pressure  
Sea Level Pressure 29.87 in    
Wind  
Wind Speed 6 mph (SSE)    
Max Wind Speed 17 mph    
Max Gust Speed 22 mph    
Visibility 10 miles    
Events      
Averages and records for this station are not official NWS values.
T = Trace of Precipitation, MM = Missing Value Source: NWS Daily Summary

Daily Weather History Graph

Daily Weather History Graph

Search for Another Location

Airport or City:

Trip Planner

Search our weather history database for the weather conditions in past years. The results will help you decide how hot, cold, wet, or windy it might be!

Date:

Astronomy

Nov. 24, 2011 Rise Set
Actual Time 7:31 AM CST 5:05 PM CST
Civil Twilight 7:01 AM CST 5:36 PM CST
Nautical Twilight 6:27 AM CST 6:10 PM CST
Astronomical Twilight 5:53 AM CST 6:43 PM CST
Moon 6:51 AM CST (11/24) 4:37 PM CST (11/24)
Length of Visible Light 10h 34m
Length of Day
9h 33m
Waning Crescent, 0% of the Moon is Illuminated
Nov 24
Waning Crescent
Nov 25
New
Dec 2
First Quarter
Dec 10
Full
Dec 17
Last Quarter

Hourly Weather History & Observations

Time (CST) Temp. Windchill Dew Point Humidity Pressure Visibility Wind Dir Wind Speed Gust Speed Precip Events Conditions
12:15 AM 42.4 °F 40.7 °F 27.7 °F 56% 30.00 in 10.0 mi SSE 3.5 mph - N/A   Clear
12:35 AM 41.9 °F 39.0 °F 27.9 °F 58% 29.99 in 10.0 mi SE 4.6 mph - N/A   Clear
12:55 AM 40.6 °F 37.5 °F 27.5 °F 59% 29.99 in 10.0 mi SSE 4.6 mph - N/A   Clear
1:15 AM 39.7 °F 37.6 °F 27.3 °F 61% 29.98 in 10.0 mi SE 3.5 mph - N/A   Clear
1:35 AM 39.7 °F 37.6 °F 27.0 °F 60% 29.98 in 10.0 mi SSE 3.5 mph - N/A   Clear
1:55 AM 41.2 °F 39.2 °F 27.5 °F 58% 29.98 in 10.0 mi SE 3.5 mph - N/A   Clear
2:15 AM 40.3 °F 36.3 °F 27.5 °F 60% 29.97 in 10.0 mi SE 5.8 mph - N/A   Clear
2:35 AM 38.5 °F 34.1 °F 27.1 °F 64% 29.97 in 10.0 mi SE 5.8 mph - N/A   Clear
2:55 AM 40.8 °F 36.9 °F 28.0 °F 60% 29.96 in 10.0 mi SE 5.8 mph - N/A   Clear
3:15 AM 40.1 °F 38.0 °F 28.0 °F 62% 29.96 in 10.0 mi SE 3.5 mph - N/A   Clear
3:35 AM 38.7 °F 33.6 °F 27.5 °F 64% 29.95 in 10.0 mi SE 6.9 mph - N/A   Clear
3:55 AM 37.8 °F 33.3 °F 27.5 °F 67% 29.94 in 10.0 mi SSE 5.8 mph - N/A   Clear
4:15 AM 37.4 °F 32.1 °F 27.5 °F 67% 29.93 in 10.0 mi SSE 6.9 mph - N/A   Clear
4:35 AM 37.4 °F 32.8 °F 27.9 °F 68% 29.93 in 10.0 mi SE 5.8 mph - N/A   Clear
4:55 AM 34.9 °F 29.0 °F 26.4 °F 71% 29.93 in 10.0 mi SSE 6.9 mph - N/A   Clear
5:15 AM 34.3 °F 28.4 °F 27.5 °F 76% 29.93 in 10.0 mi SE 6.9 mph - N/A   Clear
5:55 AM 35.6 °F 29.9 °F 28.4 °F 75% 29.92 in 10.0 mi SE 6.9 mph - N/A   Clear
6:15 AM 33.4 °F 29.1 °F 27.3 °F 78% 29.92 in 10.0 mi SE 4.6 mph - N/A   Clear
6:35 AM 32.0 °F 25.6 °F 26.4 °F 80% 29.92 in 10.0 mi SE 6.9 mph - N/A   Clear
6:55 AM 33.6 °F 27.5 °F 27.9 °F 79% 29.92 in 10.0 mi SE 6.9 mph - N/A   Clear
7:15 AM 34.0 °F 28.0 °F 28.0 °F 79% 29.92 in 10.0 mi SE 6.9 mph - N/A   Clear
7:35 AM 34.7 °F 28.8 °F 28.4 °F 78% 29.92 in 10.0 mi SE 6.9 mph - N/A   Clear
7:55 AM 35.2 °F 30.3 °F 28.6 °F 77% 29.91 in 10.0 mi SE 5.8 mph - N/A   Clear
8:15 AM 35.8 °F 30.9 °F 29.3 °F 77% 29.91 in 10.0 mi SE 5.8 mph - N/A   Clear
8:35 AM 36.7 °F 34.1 °F 29.8 °F 76% 29.91 in 10.0 mi ESE 3.5 mph - N/A   Clear
8:55 AM 38.3 °F 34.8 °F 30.9 °F 75% 29.90 in 10.0 mi SSE 4.6 mph - N/A   Clear
9:15 AM 40.5 °F 35.1 °F 32.4 °F 73% 29.89 in 10.0 mi SSE 8.1 mph - N/A   Clear
9:35 AM 43.3 °F 37.7 °F 34.3 °F 71% 29.89 in 10.0 mi South 10.4 mph - N/A   Clear
9:55 AM 44.6 °F 39.7 °F 34.9 °F 69% 29.89 in 10.0 mi South 9.2 mph - N/A   Clear
10:15 AM 46.4 °F 41.9 °F 35.8 °F 67% 29.88 in 10.0 mi South 9.2 mph - N/A   Clear
10:35 AM 49.1 °F - 36.5 °F 62% 29.87 in 10.0 mi South 13.8 mph - N/A   Clear
10:55 AM 52.3 °F - 36.7 °F 55% 29.87 in 10.0 mi South 13.8 mph - N/A   Clear
11:15 AM 53.2 °F - 36.3 °F 53% 29.86 in 10.0 mi South 15.0 mph - N/A   Clear
11:35 AM 54.7 °F - 36.0 °F 49% 29.84 in 10.0 mi South 16.1 mph - N/A   Clear
11:55 AM 56.5 °F - 36.1 °F 47% 29.83 in 10.0 mi South 15.0 mph - N/A   Clear
12:15 PM 57.9 °F - 36.1 °F 44% 29.82 in 10.0 mi South 15.0 mph - N/A   Clear
12:35 PM 59.7 °F - 35.4 °F 40% 29.81 in 10.0 mi South 16.1 mph - N/A   Clear
12:55 PM 61.5 °F - 33.6 °F 35% 29.80 in 10.0 mi South 12.7 mph - N/A   Clear
1:15 PM 62.1 °F - 33.3 °F 34% 29.80 in 10.0 mi South 16.1 mph - N/A   Clear
2:15 PM 63.7 °F - 33.8 °F 33% 29.78 in 10.0 mi SSW 15.0 mph 21.9 mph N/A   Clear
2:35 PM 63.9 °F - 32.7 °F 31% 29.79 in 10.0 mi SSW 9.2 mph 18.4 mph N/A   Clear
2:55 PM 64.6 °F - 32.5 °F 30% 29.78 in 10.0 mi South 16.1 mph 19.6 mph N/A   Clear
3:15 PM 64.4 °F - 32.0 °F 30% 29.78 in 10.0 mi SSW 17.3 mph - N/A   Clear
3:35 PM 64.0 °F - 31.6 °F 30% 29.78 in 10.0 mi South 9.2 mph - N/A   Clear
3:55 PM 63.3 °F - 31.6 °F 31% 29.79 in 10.0 mi South 8.1 mph 16.1 mph N/A   Clear
4:15 PM 61.7 °F - 31.1 °F 32% 29.78 in 10.0 mi South 6.9 mph - N/A   Clear
4:35 PM 61.3 °F - 31.1 °F 32% 29.78 in 10.0 mi South 4.6 mph - N/A   Clear
4:55 PM 58.8 °F - 31.1 °F 35% 29.77 in 10.0 mi South 5.8 mph - N/A   Clear
5:15 PM 54.7 °F - 31.6 °F 42% 29.78 in 10.0 mi SW 3.5 mph - N/A   Clear
5:35 PM 54.5 °F - 31.1 °F 41% 29.78 in 10.0 mi SW 5.8 mph - N/A   Clear
5:55 PM 53.6 °F - 30.7 °F 42% 29.78 in 10.0 mi Calm Calm - N/A   Mostly Cloudy
6:15 PM 50.9 °F - 29.8 °F 44% 29.79 in 10.0 mi NNE 4.6 mph - N/A   Mostly Cloudy
6:35 PM 49.6 °F - 30.4 °F 48% 29.79 in 10.0 mi WNW 3.5 mph - N/A   Scattered Clouds
6:55 PM 49.5 °F - 30.0 °F 47% 29.79 in 10.0 mi Calm Calm - N/A   Scattered Clouds
7:35 PM 39.2 °F - 27.9 °F 64% 29.79 in 10.0 mi Calm Calm - N/A   Scattered Clouds
7:55 PM 41.2 °F - 28.4 °F 60% 29.78 in 10.0 mi Calm Calm - N/A   Clear
8:15 PM 44.1 °F 42.5 °F 29.3 °F 56% 29.78 in 10.0 mi SE 3.5 mph - N/A   Clear
8:35 PM 40.6 °F 37.5 °F 28.2 °F 61% 29.78 in 10.0 mi SE 4.6 mph - N/A   Clear
8:55 PM 39.7 °F 34.3 °F 28.4 °F 64% 29.78 in 10.0 mi SE 8.1 mph - N/A   Clear
9:15 PM 41.4 °F 38.4 °F 28.9 °F 61% 29.77 in 10.0 mi SE 4.6 mph - N/A   Clear
9:35 PM 43.5 °F 40.9 °F 28.6 °F 56% 29.77 in 10.0 mi SE 4.6 mph - N/A   Clear
9:55 PM 43.7 °F - 28.9 °F 56% 29.77 in 10.0 mi Calm Calm - N/A   Clear
10:35 PM 42.1 °F 39.2 °F 30.0 °F 62% 29.77 in 10.0 mi SSE 4.6 mph - N/A   Clear
10:55 PM 41.9 °F 37.5 °F 30.7 °F 65% 29.76 in 10.0 mi SSW 6.9 mph - N/A   Clear
11:15 PM 45.1 °F 42.0 °F 32.0 °F 60% 29.75 in 10.0 mi South 5.8 mph - N/A   Clear
11:35 PM 44.6 °F 41.4 °F 32.0 °F 61% 29.75 in 10.0 mi SE 5.8 mph - N/A   Clear
11:55 PM 44.8 °F - 32.2 °F 61% 29.75 in 10.0 mi Calm Calm - N/A   Clear